SPOT 7

Last updated on Sun Apr 12 2026 00:02:35 GMT+0000 (Coordinated Universal Time)

1 40053U 14034A 26101.47188373 .00000497 00000+0 11085-3 0 9992 2 40053 98.0681 165.6682 0001644 87.1284 273.0105 14.60901463627394
UTC large
Height (km)
Speed (km/s)
/
Latitude / Longitude
Inclination (degrees)
Orbital Period (minutes)
Azimuth
Elevation
Range (km)
Doppler Factor

Next 0 passes for location: London (51.5072 / 0.1276)

Sorry there are no passes over London.
SPOT 7